Regional Weather Roundup
Issued by NWS

Home | Current Version | Previous Version | Text Only | Print | Product List | Glossary Off
Versions: 1 2 3 4 5 6 7 8 9 10 11 12 13 14 15 16 17 18 19 20 21 22 23 24 25 26 27 28 29 30 31 32 33 34 35 36 37 38 39 40 41 42 43 44 45 46 47 48 49 50

000
ASUS45 KTFX 151619
RWRMT
MONTANA HOURLY WEATHER ROUNDUP
NATIONAL WEATHER SERVICE GREAT FALLS MT
1019 AM MDT TUE APR 15 2014

NOTE: "FAIR" INDICATES FEW OR NO CLOUDS BELOW 12000 FEET WITH NO
SIGNIFICANT WEATHER AND/OR OBSTRUCTIONS TO VISIBILITY.

* THESE STATIONS ARE NOT UNDER NWS QUALITY CONTROL. THEY DO NOT
   REPORT WEATHER SUCH AS PRECIPITATION OR FOG.

MTZ001>007-043-151700-
WEST OF THE DIVIDE
CITY           SKY/WX    TMP DP  RH WIND       PRES   REMARKS
KALISPELL      CLOUDY    41  28  60 N3        29.76S
MISSOULA       CLOUDY    46  30  54 CALM      29.84R
BUTTE          CLOUDY    45  19  35 W8        29.78F
MULLAN PASS    LGT SNOW  28  27  96 VRB6      29.82S VSB 2    WCI  21
* ESSEX        N/A       41  30  65 E2         N/A
* LINCOLN      N/A       47  23  39 SW6G19     N/A
* LOOKOUT PASS N/A       35  29  79 SE11G17    N/A   WCI  27
* POLSON       N/A       47  26  44 S3G10      N/A
* RONAN APT    CLOUDY    46  28  50 SW11       N/A
* SEELEY LAKE  N/A       39  30  70 NW4G11     N/A
* THOMP F APT  CLOUDY    36  13  39 E5G11      N/A   WCI  32
* YAAK HILL    N/A       38  29  70 S1         N/A
$$

MTZ008-052>055-151700-
SOUTHWEST MONTANA
CITY           SKY/WX    TMP DP  RH WIND       PRES   REMARKS
BOZEMAN        CLOUDY    46  27  48 N6        29.75F
DILLON         CLOUDY    46  16  30 SW12      29.76F
W YELLOWSTONE  N/A       38  16  41 SW6G16     N/A   WCI  33
* THREE FORKS  CLOUDY    48  25  41 N/A        N/A
* BOULDER HILL N/A       43  14  31 S6G11      N/A
* MONIDA PASS  N/A       33  13  44 SE22G27    N/A   WCI  21
* RAYNOLDS PAS N/A       32  17  54 S16G22     N/A   WCI  21
* WHITEHALL    N/A       48  16  28 SW9        N/A
* WISE RIVER   N/A       44  24  45 NW8G15     N/A
$$

MTZ009>010-012-014-046-048-049-054-151700-
EAST SLOPES AND CENTRAL MONTANA
CITY           SKY/WX    TMP DP  RH WIND       PRES   REMARKS
CUT BANK       CLOUDY    46  19  34 W22G28    29.67S
GREAT FALLS    CLOUDY    52  25  35 SW17G28   29.68R
HELENA         CLOUDY    43  21  42 CALM      29.75F
MALMSTROM AFB  CLOUDY    52  23  32 SW9       29.66S
* CONRAD       CLOUDY    45  25  45 SW7        N/A
* DEARBORN     N/A       53  23  31 S13G24     N/A
* EAST GLACIER N/A       41  22  47 N16G24     N/A
* MONARCH      N/A       43  10  26 W19G25     N/A
* PENDROY      N/A       47  20  34 W18G24     N/A
* ROGERS PASS  N/A       43  21  42 E9G27      N/A
* SAINT MARY   N/A       43  19  38 SW6G16     N/A
* SWEET GRASS  N/A       49  18  29 NW22G29    N/A
* WHITE SULPH  N/A       45  22  40 W11G17     N/A
$$

MTZ011-013-016-021-035-040-045-047-050-051-151700-
NORTH CENTRAL MONTANA
CITY           SKY/WX    TMP DP  RH WIND       PRES   REMARKS
HAVRE          PTCLDY    57  21  25 W17G26    29.59F
LEWISTOWN      CLOUDY    48  25  41 NW8       29.66F
* FORT BENTON  CLOUDY    54  23  30 SW16G23   29.66S
* CHESTER      N/A       51  18  27 NW14G23    N/A
* DENTON       N/A       53  20  27 W17G23     N/A
* GEYSER       N/A       50  14  24 W26G34     N/A
* JUDITH GAP   N/A       47  16  29 W4         N/A
* LOMA         N/A       51  23  33 SW16G22    N/A
$$

MTZ017>020-022>027-061-062-151700-
NORTHEAST MONTANA
CITY           SKY/WX    TMP DP  RH WIND       PRES   REMARKS
GLASGOW        PTSUNNY   39  18  43 SE6       29.61F WCI  35
GLENDIVE       PTCLDY    43  19  38 S8        29.66F
JORDAN         PTSUNNY   55  19  24 W16       29.61F
SIDNEY         PTCLDY    37  18  46 SE12      29.70F WCI  29
WOLF POINT     CLOUDY    41  18  39 E9        29.64F
* BEAVER HILL  N/A       41  18  39 S11G16     N/A
* CIRCLE       N/A       47  26  44 SW5G10     N/A
* LINDSAY DVD  N/A       38  18  44 SE8        N/A   WCI  32
* NAVAJO       N/A       30  13  49 SE16       N/A   WCI  19
* SACO         N/A       39  17  41 E3         N/A
$$

MTZ028>042-056>058-151700-
SOUTHCENTRAL AND SOUTHEAST MONTANA
CITY           SKY/WX    TMP DP  RH WIND       PRES   REMARKS
BAKER          CLOUDY    45  21  38 S7        29.67F
BILLINGS       PTSUNNY   52  19  27 SW21      29.69F
LIVINGSTON     PTSUNNY   55  18  23 SW26G36   29.71F
MILES CITY     PTCLDY    52  25  35 W10       29.65F
* EKALAKA APT  PTCLDY    48  16  28 SW12G17   29.68F
* LAUREL APT   CLOUDY    50  18  28 S16G23     N/A
* ROUNDUP APT  PTCLDY    57  18  22 SW13G21    N/A
* HYSHAM       N/A       51  22  32 W9G16      N/A
* LAME DEER    N/A       50  16  26 SW15G24    N/A
* REED POINT   N/A       49  30  48 N/A        N/A
* ROSCOE HILL  N/A       47  11  23 S17G27     N/A
$$

REGIONAL REPORTS...DAKOTAS
CITY           SKY/WX    TMP DP  RH WIND       PRES   REMARKS
WILLISTON      PTSUNNY   32  12  43 SE16G23   29.73F WCI  21
DICKINSON      CLOUDY    34  16  48 S24G32    29.70F WCI  22
CROSBY         SUNNY     32  14  47 SE15G20   29.75F WCI  22
TIOGA          SUNNY     28  12  51 SE26G35   29.78F WCI  13
WATFORD CITY   PTSUNNY   32  14  47 S15G22    29.71F WCI  22
BISMARCK       CLOUDY    30  12  47 S16       29.92F WCI  19
GRAND FORKS    PTCLDY    21   7  55 S7        30.09F WCI  12
FARGO          SUNNY     25   3  38 CALM      30.13F
BUFFALO SD     PTCLDY    37  18  46 S12       29.65F WCI  29
RAPID CITY     CLOUDY    45  25  45 SE6       29.75F
$$

REGIONAL REPORTS...WYOMING/IDAHO/WASHINGTON
CITY           SKY/WX    TMP DP  RH WIND       PRES   REMARKS
GILLETTE       CLOUDY    48  23  37 SW16      29.75F
SHERIDAN       PTSUNNY   55  25  31 W18       29.73F
CODY           PTSUNNY   48  14  25 W9G20     29.78F
YELLOWSTONE LA PTCLDY    36   9  32 VRB3      29.91F
SALMON         CLOUDY    43  23  45 SW3       29.83R
MULLAN PASS    LGT SNOW  28  27  96 VRB6      29.82S VSB 2    WCI  21
SAND POINT     PTSUNNY   48  32  54 W7        29.84R
SPOKANE        PTSUNNY   48  23  37 SW17      29.87S
$$

REGIONAL REPORTS...ALBERTA
CITY           SKY/WX    TMP DP  RH WIND       PRES   REMARKS
CALGARY        CLOUDY    48  14  25 N28G40    29.67R
LETHBRIDGE     CLOUDY    52  21  30 W26G35    29.63S
MEDICINE HAT   PTSUNNY   54  21  27 NW16G25   29.56S
EDMONTON       PTSUNNY   37  23  57 N6        29.75R WCI  32
WATERTON GATE  N/A       43  21  42 SW17G25    N/A
CARDSTON       N/A       46  23  40 W12G21     N/A
MILK RIVER     N/A       52  18  26 W24G31     N/A
$$

REGIONAL REPORTS...SASKATCHEWAN
CITY           SKY/WX    TMP DP  RH WIND       PRES   REMARKS
SWIFT CURRENT  PTSUNNY   41  19  41 SW13      29.55F
MOOSE JAW      PTSUNNY   34  14  44 SE15G25   29.69S WCI  24
REGINA         CLOUDY    32  18  56 SE24G33   29.73F WCI  19
VAL MARIE      N/A       41  16  36 S7         N/A
ASSINIBOIA     N/A       32  16  52 SE13G18    N/A   WCI  22
CORONACH       N/A       34  16  48 SE14G21    N/A   WCI  24

$$




USA.gov is the U.S. government's official web portal to all federal, state and local government web resources and services.